This demonstration page uses our WeatherBlox Daily Observations layout. Learn more.

Left ArrowRight Arrow

47.50024, -111.30081

Hourly Observations for April 26, 2019

Temp ( °F °C ) Dew Point ( °F °C ) Humidity (%) Winds ( mph kmh ) Pressure ( in mb ) Visibility ( mi km ) Precip ( " mm )
12:53 am 00:53 Clear 45 7.2 34 1.1 66 66 E 6 9 29.98 1015 10 16 0.00 0.00
1:53 am 01:53 Clear 44 6.7 35 1.7 71 71 Calm 29.96 1015 10 16 0.00 0.00
2:53 am 02:53 Clear 46 7.8 34 1.1 63 63 SSW 12 19 29.93 1013 10 16 0.00 0.00
3:53 am 03:53 Clear 43 6.1 35 1.7 74 74 SW 10 17 29.92 1013 10 16 0.00 0.00
4:53 am 04:53 Clear 42 5.6 35 1.7 76 76 W 3 6 29.91 1013 10 16 0.00 0.00
5:53 am 05:53 Clear 40 4.4 36 2.2 86 86 WNW 5 7 29.90 1013 10 16 0.00 0.00
6:53 am 06:53 Sunny 40 4.4 36 2.2 86 86 Calm 29.89 1012 10 16 0.00 0.00
7:53 am 07:53 Cloudy 42 5.6 37 2.8 82 82 E 5 7 29.88 1012 10 16 0.00 0.00
8:53 am 08:53 Cloudy 43 6.1 36 2.2 76 76 NW 3 6 29.89 1012 10 16 0.00 0.00
9:53 am 09:53 Cloudy 45 7.2 37 2.8 74 74 NNW 7 11 29.88 1012 10 16 0.00 0.00
10:53 am 10:53 Cloudy 50 10 36 2.2 59 59 N 13 20 29.87 1012 10 16 0.00 0.00
11:53 am 11:53 Cloudy 53 11.7 32 0 45 45 NW 16 26 29.88 1012 10 16 0.00 0.00
12:53 pm 12:53 Mostly Cloudy 53 11.7 32 0 45 45 WNW 13 20 29.89 1012 10 16 0.00 0.00
1:35 pm 13:35 Cloudy 48 8.9 36 2.2 63 63 N 16 26 29.86 1011 10 16 0.00 0.00
1:53 pm 13:53 Mostly Cloudy 50 10 37 2.8 61 61 NNW 15 24 29.91 1013 10 16 0.00 0.00
2:53 pm 14:53 Cloudy 49 9.4 35 1.7 59 59 NNW 17 28 29.91 1013 10 16 0.00 0.00
3:53 pm 15:53 Cloudy with Light Rain 47 8.3 38 3.3 71 71 NW 16 26 29.93 1013 10 16 0.00 0.03
4:25 pm 16:25 Cloudy 45 7.2 37 2.8 74 74 NNW 12 19 29.91 1013 10 16 0.00 0.03
4:51 pm 16:51 Cloudy with Light Rain 45 7 37 3 76 76 NW 9 15 29.91 1013 10 16 0.00 0.03
4:53 pm 16:53 Cloudy with Light Rain 45 7.2 38 3.3 77 77 NW 9 15 29.94 1014 10 16 0.00 0.03
5:53 pm 17:53 Cloudy 46 7.8 33 0.6 61 61 NW 14 22 29.96 1015 10 16 0.00 0.03
6:53 pm 18:53 Cloudy 44 6.7 37 2.8 76 76 WSW 12 19 29.97 1015 10 16 0.00 0.03
7:53 pm 19:53 Sunny 41 5 37 2.8 86 86 SW 13 20 29.97 1015 10 16 0.00 0.00
8:40 pm 20:40 Cloudy with Light Rain 41 5 38 3.3 89 89 NNW 14 22 30.00 1016 10 16 0.00 0.03
8:53 pm 20:53 Cloudy 41 5 37 2.8 86 86 NNW 9 15 30.02 1017 10 16 0.00 0.03
9:53 pm 21:53 Mostly Cloudy 40 4.4 35 1.7 83 83 WNW 6 9 30.04 1017 10 16 0.00 0.00
10:53 pm 22:53 Cloudy 40 4.4 36 2.2 86 86 W 8 13 30.04 1017 10 16 0.00 0.00
11:53 pm 23:53 Cloudy 39 3.9 38 3.3 96 96 WSW 7 11 30.03 1017 10 16 0.00 0.00

Powered by AerisWeather